Theta_e
293 292 292 292 292 292 293 294 294 295 294 294 294 294 294 294 294 295 294 294 293 292 292 292 291 291 292 293 292 292 290 289 287 291 292 294 295 294 296 297 297 298 298
293 292 292 292 293 293 294 294 295 294 294 294 293 293 294 294 295 294 293 292 292 292 291 291 291 291 292 292 292 292 291 290 288 288 293 294 295 296 297 297 298 298 298
293 293 293 293 293 293 294 294 294 294 294 293 293 294 294 294 292 290 288 288 287 288 290 291 291 291 291 292 291 291 291 291 290 290 292 294 295 296 297 296 297 300 299
294 294 294 293 294 294 294 294 294 293 293 293 292 292 293 291 288 287 286 286 285 285 285 288 291 291 291 291 291 290 290 290 291 291 292 294 295 295 295 296 298 299 299
294 294 293 293 294 294 293 293 293 293 292 292 291 291 291 290 287 287 287 287 287 286 286 286 286 287 288 289 289 288 288 289 289 289 291 293 294 295 294 294 296 297 296
294 294 294 293 292 292 293 293 293 292 291 290 289 288 287 287 286 287 287 287 287 287 287 286 286 287 286 287 287 288 288 285 285 285 289 291 292 293 293 293 294 296 296
294 294 293 293 293 291 290 291 291 290 289 288 288 288 288 287 287 287 286 287 287 287 287 287 287 287 287 288 287 286 286 288 287 286 286 286 289 291 292 293 294 293 292
294 293 293 292 292 292 291 290 289 289 289 289 289 288 288 287 285 286 286 287 287 287 287 287 288 288 288 288 288 288 288 287 287 287 287 286 285 285 286 288 291 292 291
290 292 292 291 291 291 291 291 291 289 289 289 288 287 286 286 285 286 286 286 287 287 287 287 287 288 288 288 288 288 288 287 287 287 287 287 287 287 286 286 287 289 285
288 289 289 291 291 292 291 291 291 290 290 288 288 287 286 286 285 285 285 285 286 287 287 287 287 287 287 287 287 287 287 287 287 287 286 286 286 286 287 287 287 286 285
287 288 288 289 289 290 291 291 291 290 290 290 290 289 287 287 287 285 284 284 284 285 286 287 286 285 286 286 285 285 286 285 285 285 285 285 285 286 286 286 286 286 286
287 288 288 288 289 289 290 290 290 290 289 290 289 290 290 289 287 285 284 283 283 283 285 286 286 284 284 284 284 284 283 283 284 284 284 284 284 284 283 283 284 284 285
286 287 287 288 288 288 288 289 289 288 288 288 288 288 289 289 289 288 286 285 283 283 284 284 284 284 283 283 283 283 282 282 282 283 283 283 283 284 283 283 283 283 282
285 286 286 287 287 287 286 286 287 287 286 286 286 286 287 287 288 287 288 288 286 283 283 283 283 283 283 283 283 282 282 282 282 283 283 283 283 283 282 282 282 282 281
284 285 285 285 285 285 285 285 285 285 284 283 284 284 284 284 285 284 285 286 287 286 283 282 282 282 282 282 281 282 282 283 283 282 281 282 282 283 282 281 281 281 280
284 284 284 284 284 284 284 285 283 282 282 282 282 281 282 282 282 282 283 284 284 284 284 284 283 283 282 283 283 283 283 282 281 281 281 281 282 282 281 281 280 279 279
283 283 283 283 282 282 282 282 283 284 282 281 281 282 282 281 281 280 281 282 284 284 284 284 283 283 283 283 283 282 282 280 280 280 281 281 281 281 280 279 279 278 278
282 282 281 281 281 281 281 281 280 280 281 282 280 280 280 280 280 280 280 281 282 282 282 282 282 282 282 282 281 281 280 280 280 280 280 280 280 279 278 278 278 277 277
281 281 281 280 280 280 279 279 279 279 279 279 279 279 279 279 279 279 279 280 280 280 279 279 279 279 279 279 278 278 278 278 278 278 278 278 277 277 277 277 276 276 276
278 278 278 278 278 278 278 277 277 277 277 277 277 277 277 277 278 279 278 278 278 278 278 278 277 277 277 277 277 277 276 276 276 276 276 276 275 275 275 275 275 275 275
278 277 277 277 277 276 276 276 276 276 275 275 275 275 274 275 275 275 275 275 275 275 275 276 276 276 276 276 276 276 275 275 275 275 274 274 274 274 274 274 274 273 273
277 277 276 276 276 275 275 275 275 275 275 275 275 275 274 274 274 274 274 274 273 273 273 274 274 273 273 274 274 274 274 274 273 273 273 273 273 273 273 273 273 272 272
277 276 276 275 275 275 275 274 275 274 275 275 274 275 275 275 274 274 274 274 274 273 273 273 273 273 273 273 273 273 273 273 273 273 273 273 273 272 272 272 272 272 272
279 277 276 275 274 274 274 275 275 274 274 274 274 274 274 274 274 274 274 274 274 274 273 273 273 274 274 274 274 274 274 273 272 272 271 272 272 272 272 272 272 272 272
279 278 276 275 275 274 274 274 275 275 274 274 274 274 274 274 274 274 274 274 274 274 275 274 274 275 275 275 275 274 274 274 274 273 271 271 271 271 270 270 270 271 271
279 278 276 275 274 273 273 274 274 275 275 274 274 274 274 274 274 274 274 274 275 276 276 276 276 276 276 276 276 275 275 275 274 274 273 273 271 270 270 270 270 270 270
Wind_Speed
13 12 11 12 11 9 9 12 14 14 13 11 11 10 10 10 9 8 9 10 11 12 13 15 15 16 16 17 19 22 24 26 35 46 42 42 41 36 26 22 25 26 29
10 10 10 9 9 9 11 13 13 11 10 10 8 7 6 6 5 5 5 6 9 11 13 13 13 13 14 16 19 22 23 24 28 39 43 41 36 31 28 30 27 22 30
10 10 9 9 9 11 11 10 8 8 8 7 5 4 4 3 1 1 3 5 8 11 13 13 11 11 11 14 17 21 23 25 27 31 38 33 31 28 27 26 22 24 21
10 10 9 11 12 11 10 7 7 7 7 6 4 4 4 4 4 5 6 8 9 10 12 12 12 10 11 13 16 18 19 21 24 26 29 29 27 27 26 28 24 24 23
11 10 10 12 11 9 7 8 7 6 6 6 5 5 6 6 7 8 9 9 11 10 11 12 11 10 11 13 16 15 17 19 20 22 23 23 25 27 27 27 27 26 24
12 12 13 13 12 10 10 10 9 7 8 9 9 9 10 10 11 11 12 12 12 13 11 12 12 11 11 12 13 15 16 18 19 19 21 23 21 21 22 22 22 23 21
15 14 16 17 16 14 14 14 12 12 14 13 13 14 13 13 14 14 15 16 14 14 14 13 12 12 12 11 12 13 14 15 17 19 19 19 20 21 22 20 19 18 17
16 16 19 20 21 19 20 20 18 18 19 18 17 17 19 16 17 17 18 18 18 16 16 15 14 12 13 14 13 12 12 13 13 15 16 17 17 17 17 19 17 15 11
17 18 18 21 24 24 25 25 24 24 24 24 23 23 23 21 19 20 20 21 21 19 18 18 17 15 14 15 16 15 14 13 13 14 16 16 16 16 17 16 12 13 12
16 17 19 21 24 25 26 27 28 30 31 31 30 29 27 26 22 23 22 24 25 23 20 20 19 18 17 16 18 18 18 15 16 14 13 15 17 16 15 15 14 13 13
16 16 17 19 21 23 26 27 28 29 32 34 34 34 32 30 28 25 25 27 28 26 24 21 19 21 21 20 20 21 20 20 19 20 20 17 17 18 18 16 14 14 13
17 17 17 18 19 20 21 23 25 27 29 32 34 35 35 34 31 30 28 27 28 30 28 23 21 22 23 23 22 22 21 22 23 23 22 22 20 18 19 20 19 17 17
16 16 17 17 17 18 19 20 21 22 25 27 29 31 32 32 31 30 31 28 29 30 30 27 25 24 24 25 24 23 23 23 23 24 23 22 21 20 19 19 19 19 18
18 17 16 17 16 15 16 17 19 19 20 21 23 24 25 26 27 27 29 29 30 30 29 28 27 27 26 26 25 24 24 24 24 24 22 21 21 21 19 19 18 18 18
18 18 17 17 17 16 15 16 16 15 16 18 19 19 21 23 20 20 19 23 27 27 26 28 29 28 27 26 25 25 24 24 24 23 23 22 21 21 20 20 19 19 19
18 18 19 19 19 18 18 15 11 14 15 15 16 15 18 21 21 19 18 20 18 19 23 27 26 26 26 25 24 24 24 23 22 22 21 21 21 20 20 20 20 19 19
18 18 18 18 18 19 18 19 19 10 12 12 12 14 18 21 22 18 17 18 17 20 21 24 24 24 25 26 26 27 27 24 21 20 21 21 20 22 22 20 19 18 18
18 18 17 17 17 17 17 17 17 18 17 13 10 11 11 13 15 17 18 19 20 21 22 24 24 24 26 27 28 28 26 25 25 25 25 26 25 24 23 21 20 19 18
18 17 16 15 15 15 16 15 15 14 14 15 11 9 11 12 12 13 14 14 13 13 15 15 17 19 20 21 21 21 21 21 20 20 19 17 16 16 16 16 15 12 10
16 17 17 16 15 14 13 13 13 13 14 14 14 15 16 14 13 13 13 12 12 13 14 14 15 15 16 16 16 16 15 15 14 13 12 11 10 11 12 12 12 12 11
16 15 15 13 13 13 13 14 15 16 16 16 17 17 19 19 18 17 16 16 16 15 15 15 14 14 15 15 15 15 14 13 12 12 12 12 11 10 10 9 9 8 8
17 17 16 15 14 13 14 15 16 18 19 20 19 18 20 21 22 22 20 19 19 19 19 19 17 17 16 16 15 15 14 14 14 14 13 11 11 10 10 10 10 10 10
19 18 17 17 17 16 16 18 19 20 21 21 22 24 24 24 25 25 25 23 23 23 21 22 22 20 19 21 20 19 18 15 16 15 14 12 12 12 12 11 11 10 8
21 21 20 20 19 20 21 21 22 22 24 25 25 26 27 28 29 29 28 27 26 26 25 25 25 24 23 22 22 22 22 20 19 18 17 16 14 14 12 11 11 10 9
23 23 23 23 24 23 24 24 25 25 27 28 29 30 31 31 31 31 30 29 28 29 28 28 27 27 27 26 24 23 23 23 22 21 20 19 17 17 16 15 14 12 12
25 25 25 25 26 26 27 28 29 30 31 31 32 33 34 35 34 33 31 31 30 30 29 28 26 25 25 25 25 24 24 24 23 22 21 21 20 19 19 17 16 15 15
Wind_Direction
274 272 274 275 271 271 276 269 260 255 252 251 250 254 261 265 280 294 295 296 308 312 307 301 297 289 286 289 292 294 292 291 287 301 306 315 320 319 316 307 311 302 300
284 282 283 276 278 278 263 255 257 251 242 248 250 256 267 281 285 291 304 327 337 338 332 322 313 296 290 293 295 296 297 296 298 300 307 315 322 324 315 313 317 307 304
290 288 287 280 267 256 255 255 257 248 244 245 249 261 269 277 274 316 327 333 344 353 354 345 333 320 310 302 302 302 302 303 303 305 307 315 320 328 327 325 318 317 317
281 283 277 266 254 252 253 257 256 258 256 247 236 242 243 234 266 287 296 310 315 322 331 347 348 338 329 322 316 313 314 313 311 312 312 313 317 324 324 323 329 320 319
277 276 272 265 260 256 259 257 250 247 248 244 234 238 251 254 270 282 294 302 305 310 316 321 323 330 332 332 331 333 324 323 326 326 326 319 315 317 320 325 322 320 326
268 267 267 265 260 259 256 253 250 245 245 246 247 252 258 266 274 281 286 290 295 301 302 301 308 316 317 314 316 321 322 326 332 333 339 332 329 322 320 325 330 330 327
274 265 263 263 262 260 258 257 254 251 251 255 256 260 260 264 272 277 282 286 289 290 293 295 297 303 306 308 311 313 317 319 322 328 332 336 336 339 336 331 326 330 337
283 270 261 262 262 259 258 257 255 255 256 257 259 263 266 267 273 275 277 281 283 283 285 287 288 290 296 301 305 309 314 318 316 322 327 331 333 336 338 335 336 341 350
283 278 275 272 269 266 263 262 260 258 259 261 262 262 267 270 269 271 274 276 278 278 279 280 282 283 285 291 296 301 304 308 310 314 317 321 326 329 332 337 342 342 354
294 288 283 278 276 274 272 268 264 262 262 263 263 265 265 267 266 267 270 274 274 276 273 273 276 280 280 283 287 293 296 300 299 296 294 302 308 313 319 325 331 337 342
309 303 297 292 286 281 277 274 272 269 266 265 265 265 265 264 265 264 267 270 274 275 271 269 270 274 277 279 282 285 291 294 294 297 298 298 297 301 307 308 309 315 320
317 313 307 301 296 293 287 282 277 275 273 271 270 268 268 267 266 266 266 267 269 271 271 268 267 267 272 276 279 281 284 287 292 292 293 294 292 289 291 296 300 301 302
325 320 315 312 308 302 297 293 289 284 282 281 280 279 277 274 269 265 264 264 263 265 270 271 267 267 268 271 274 278 282 286 286 287 290 292 291 290 289 288 291 295 297
333 331 326 323 319 317 309 304 301 298 293 290 291 292 290 286 281 272 265 261 261 263 265 267 267 266 268 271 271 273 278 281 284 286 288 288 288 289 288 287 289 290 289
338 338 336 333 331 328 324 320 310 308 306 305 303 301 305 301 299 297 289 270 260 263 263 261 263 267 268 269 274 277 277 278 281 284 283 283 283 282 285 291 292 290 288
341 341 342 342 340 338 334 330 325 311 304 297 283 278 282 288 297 297 294 289 282 272 269 267 267 268 272 275 276 278 281 284 283 279 276 276 276 276 282 284 287 290 290
341 341 343 342 344 344 343 340 337 340 329 320 309 295 280 280 281 285 290 282 266 266 262 267 274 277 277 277 279 282 285 288 282 276 273 276 274 273 276 279 281 283 287
336 338 339 341 343 346 347 348 347 345 349 348 333 317 313 305 297 290 285 280 273 265 265 264 264 266 270 275 278 281 281 278 276 275 273 273 271 269 271 273 275 278 280
329 332 334 337 339 344 347 348 351 352 352 356 356 338 334 338 331 319 314 307 295 285 279 275 274 274 276 276 277 278 279 280 280 280 280 278 274 268 267 267 267 263 262
330 328 327 329 331 337 337 341 344 346 351 350 348 342 344 349 339 338 337 332 322 312 304 298 295 293 292 291 289 288 286 285 283 280 277 271 264 259 259 260 260 259 256
332 330 325 326 331 333 335 338 337 340 340 340 339 337 334 335 335 332 329 325 322 318 313 308 303 298 293 290 288 287 286 283 278 275 271 267 264 260 255 252 251 252 254
324 322 319 318 317 319 322 324 327 328 327 325 324 324 322 321 320 318 315 312 307 304 302 299 297 295 293 290 288 286 283 278 274 269 265 261 257 255 252 248 249 252 256
318 314 311 309 307 308 310 314 316 316 316 316 316 317 318 315 312 310 308 305 300 298 294 292 292 290 288 288 287 285 281 277 274 273 270 265 260 256 256 257 257 255 251
314 310 305 302 298 299 303 307 309 310 310 310 310 311 312 312 310 308 305 302 298 296 293 291 289 288 285 281 279 280 280 276 270 267 265 263 259 257 254 251 251 253 257
306 302 299 298 296 296 297 300 303 307 308 308 307 307 308 308 307 305 302 299 296 293 291 288 286 285 283 280 276 272 270 269 266 264 262 260 257 255 252 249 251 250 250
300 298 296 293 292 293 295 299 302 305 307 308 307 307 307 307 307 305 302 299 296 292 291 289 287 284 281 278 275 270 265 263 262 260 258 256 252 250 249 248 246 246 245